Simultaneous Nadir Overpasses (SNOs) Predictions

Prediction of SNOs between METOP-A and NOAA-19 Satellite Orbit:

Table of predicted SNOs for the next 14.0 days since TLE Epoch: 10/17/2020
Index Date (METOP-A) Time (METOP-A) Lat,Lon (METOP-A) SZA (METOP-A ) Date (NOAA-19) Time (NOAA-19) Lat,Lon (NOAA-19) SZA (NOAA-19 ) Distance(km) Time Diff (sec)
1 10/24/2020 03:32:50 -80.73, -39.98 87.03 10/24/2020 03:31:39 -80.73, -39.86 87.04 2.12 71
2 10/24/2020 04:23:30 80.74, 127.51 93.01 10/24/2020 04:22:38 80.73, 127.39 92.98 2.38 52
3 10/24/2020 05:14:12 -80.72, -65.46 87.02 10/24/2020 05:13:40 -80.74, -65.54 87.02 2.15 32
4 10/24/2020 06:04:52 80.74, 102.03 93.02 10/24/2020 06:04:38 80.73, 102.07 93.01 0.97 14
5 10/24/2020 06:55:33 -80.74, -90.59 86.97 10/24/2020 06:55:39 -80.72, -90.49 86.98 2.41 6
6 10/24/2020 07:46:14 80.73, 76.55 93.02 10/24/2020 07:46:39 80.73, 76.38 93.03 3.16 25
7 10/24/2020 08:36:55 -80.73,-116.07 86.96 10/24/2020 08:37:40 -80.73,-116.17 86.96 1.78 45
